Location: Nelson
(41.2830°S, 173.2830°E)
Time: 15:34:24
(UTC+12:00)

Radarsat Rocket - Pass Details

Date: 14 May 2021
Orbit: 934 x 1491 km, 100.6° (Epoch: 19 June)

Event Time Altitude Azimuth Distance (km) Brightness Sun altitude
Rises 18:13:20 0° 157° (SSE) 3,795 6.7 -10.4°
Reaches altitude 10° 18:16:08 10° 148° (SSE) 2,779 6.0 -10.9°
Maximum altitude 18:21:44 37° 82° (E) 1,453 4.5 -11.9°
Drops below altitude 10° 18:27:04 10° 15° (NNE) 2,644 6.3 -12.9°
Sets 18:29:39 0° 6° (N) 3,587 7.1 -13.4°
